Dewpoint
35 35 35 32 31 32 34 35 36 36 37 35 35 36 37 37 37 36 34 35 29 25 24 26 29 25 27 26 21 22 20 24 25 22 24 24 23 24 21 22 23 19 22 23 22 19 15 32 33 25 33 36 33 32
38 35 34 32 31 33 34 36 37 37 36 36 36 37 38 38 38 37 33 36 34 29 25 31 30 30 28 28 26 26 24 24 27 25 24 25 25 26 25 16 29 20 27 25 24 23 32 32 32 32 37 36 34 33
36 37 34 32 32 33 36 36 37 36 36 36 36 37 37 38 38 38 37 37 35 31 29 29 26 27 33 32 31 26 27 30 31 33 28 28 24 28 23 25 27 29 34 30 30 32 32 33 32 31 32 32 32 32
35 35 38 32 32 34 35 35 36 36 37 35 35 36 37 38 39 39 37 37 34 31 23 21 28 27 30 31 31 29 26 32 32 31 27 28 25 30 24 28 27 30 31 28 30 31 31 30 30 30 29 29 29 29
36 36 34 33 33 35 34 36 36 36 34 34 36 37 38 38 39 39 40 38 36 29 23 23 28 28 30 30 31 31 30 29 28 26 26 26 28 30 30 31 26 29 27 26 24 28 28 26 28 29 27 26 27 25
37 35 34 33 34 35 35 36 35 34 34 36 37 37 38 39 40 39 32 36 38 36 29 23 28 27 29 30 29 30 30 30 29 29 29 30 33 32 26 25 28 29 29 30 27 28 26 26 26 27 24 24 24 23
33 32 32 33 34 36 36 35 35 35 36 37 37 39 40 41 41 32 30 32 39 37 29 23 21 27 32 31 31 30 32 31 30 29 27 26 25 29 29 25 25 28 28 28 30 29 25 27 22 23 21 20 20 19
32 33 35 36 36 35 35 35 35 35 36 38 39 39 41 40 38 35 37 39 38 32 30 21 20 23 33 29 29 31 30 31 31 28 30 30 30 32 24 24 25 26 28 26 26 27 25 23 21 20 19 17 16 16
32 35 36 36 36 36 35 34 35 36 38 39 40 38 36 33 33 35 39 38 35 28 23 22 18 15 32 29 31 32 32 27 29 28 27 29 26 24 22 23 22 23 23 25 25 24 23 21 21 19 17 16 15 15
34 35 35 35 35 35 34 34 35 37 38 40 35 29 29 35 39 39 34 29 25 26 29 22 24 22 29 28 28 28 28 24 21 24 31 28 21 22 22 22 21 21 21 23 24 23 21 19 18 18 17 16 15 14
35 35 34 33 33 33 34 35 38 39 39 34 30 28 36 37 31 28 24 20 21 21 25 25 26 25 31 26 27 28 25 24 19 25 24 21 18 19 20 19 19 20 20 20 19 20 21 19 18 16 15 15 14 13
33 32 32 32 34 34 35 37 40 38 35 31 34 37 37 30 24 20 21 24 22 20 26 26 27 29 31 32 29 29 26 26 23 29 25 19 16 19 18 17 17 18 17 17 17 17 17 16 16 15 14 13 12 11
32 32 33 33 35 35 36 39 40 37 35 33 29 28 25 25 20 17 16 18 19 23 26 29 28 31 32 33 30 29 25 24 30 24 19 15 17 18 17 16 15 15 15 15 14 13 13 13 13 12 11 11 10 9
34 33 33 35 35 36 39 40 39 36 33 26 23 19 20 19 20 17 19 19 24 30 31 31 30 30 31 28 27 23 25 27 20 19 16 15 17 17 16 15 12 12 13 12 12 12 11 11 10 10 10 10 9 8
35 35 36 38 39 39 40 38 37 30 25 23 22 17 21 21 23 22 23 27 29 31 32 29 27 27 24 22 22 22 21 19 18 17 13 16 16 15 13 12 11 10 10 11 11 11 11 11 10 10 11 11 9 7
38 38 38 40 41 39 38 34 29 26 24 20 20 19 21 22 22 24 25 27 28 30 30 27 23 21 21 20 19 17 17 16 14 12 12 14 12 11 11 11 10 10 10 11 12 12 11 11 10 10 9 7 6 5
39 39 42 40 40 38 35 31 26 22 20 18 18 17 18 17 19 21 22 23 25 29 24 21 20 19 20 17 16 13 15 12 11 11 13 12 12 11 11 12 12 12 12 13 13 13 13 12 12 10 10 11 10 9
39 40 40 39 33 27 25 29 24 20 18 19 18 17 17 16 19 19 20 21 25 25 22 21 19 19 18 17 14 11 11 10 11 13 13 12 12 12 13 13 14 14 14 14 14 14 12 13 11 10 10 10 10 9
39 39 38 34 30 27 22 24 24 17 19 20 19 19 17 17 19 18 20 21 20 20 16 14 13 14 13 11 11 9 11 12 13 13 14 13 14 14 14 15 15 16 15 15 15 14 14 15 15 13 11 10 9 9
35 33 31 28 25 22 20 20 22 18 17 19 19 18 16 16 16 15 18 19 17 16 14 12 12 12 12 13 11 13 12 15 15 14 14 16 17 16 16 16 16 17 16 16 15 13 12 11 11 12 13 13 12 11
30 31 28 25 23 22 22 21 20 20 19 16 16 16 16 15 13 13 13 16 15 13 12 12 14 15 13 12 13 15 16 15 14 13 14 15 17 17 17 17 17 15 12 11 10 9 9 9 8 7 6 5 6 7
33 32 26 24 21 21 21 22 19 20 19 19 19 16 14 12 10 11 13 12 11 13 13 14 15 16 16 15 16 16 16 15 15 15 16 16 15 15 15 14 12 10 9 9 10 10 9 9 8 6 5 5 4 6
35 32 29 26 16 16 18 25 17 17 14 17 16 14 14 12 12 14 10 12 12 15 16 17 18 18 17 17 17 17 16 16 15 15 14 13 12 12 12 12 11 10 10 9 9 8 8 5 5 6 5 5 4 6
28 26 25 22 18 16 20 20 21 19 19 15 12 11 13 12 11 7 7 10 13 16 17 17 17 16 16 15 14 14 14 13 11 11 11 10 9 8 9 9 8 8 8 7 6 5 3 4 3 4 3 4 3 3
25 20 22 19 19 17 16 17 17 15 14 13 13 12 12 11 7 6 7 10 13 14 15 17 16 14 12 11 11 13 13 13 12 10 9 8 8 7 7 6 6 6 5 6 6 6 4 2 2 3 2 1 2 2
17 16 18 17 18 16 15 14 14 13 12 11 11 13 10 9 7 5 7 10 12 12 13 14 13 13 12 12 12 12 11 11 9 9 8 8 7 5 4 4 5 5 3 4 4 4 4 2 2 3 3 3 -1 -0
13 13 15 15 16 14 12 11 11 11 11 12 12 11 9 8 6 8 10 10 13 12 13 13 13 13 11 10 9 8 7 8 8 7 6 5 4 4 4 4 4 5 2 2 2 3 3 2 2 1 1 -0 -1 -1
11 11 12 9 8 6 9 7 9 10 9 11 10 10 9 6 6 8 9 10 10 11 10 9 9 10 9 7 5 4 3 3 3 4 4 3 1 1 1 2 2 1 1 -0 0 -1 -0 -0 0 0 -0 0 -0 -3
6 6 7 6 5 4 4 4 5 7 9 7 5 4 4 6 7 7 10 11 10 9 8 7 4 3 2 1 0 2 3 3 -0 -1 2 1 1 3 -1 -0 0 -1 -1 2 1 0 0 1 0 -1 -2 -3 -4 -8
5 5 3 2 1 2 3 4 5 5 7 7 8 7 5 6 8 10 10 11 10 8 6 5 3 5 4 4 3 2 -1 -1 3 4 3 4 4 1 0 1 1 -2 -3 -1 0 0 0 -2 -3 -5 -4 -4 -5 -5
5 4 3 2 2 4 5 5 4 5 4 4 2 3 4 6 8 8 7 6 5 5 4 3 1 1 2 2 2 3 4 0 -4 -3 -3 -2 -1 -1 -1 -3 -5 -5 -4 -2 -2 -2 -2 -3 -4 -4 -4 -4 -7 -10
2 2 1 1 3 6 5 4 5 5 6 5 4 0 1 3 5 5 5 6 6 6 4 3 3 2 -0 -2 -3 -4 -2 -1 -2 -2 -1 -1 -2 -5 -6 -6 -8 -6 -5 -5 -5 -5 -6 -7 -8 -10 -10 -10 -11 -11
2 1 1 4 5 4 5 3 3 5 5 6 5 2 -0 1 4 5 4 4 7 6 4 1 -3 -3 -4 -2 -2 -3 -4 -5 -6 -4 -5 -4 -5 -7 -9 -10 -10 -9 -8 -7 -8 -10 -10 -11 -10 -11 -11 -11 -12 -12
Wind_Speed
21 19 19 16 15 16 15 14 14 12 12 10 9 9 8 9 13 10 4 12 9 5 6 7 5 7 4 2 3 8 10 4 4 7 6 7 8 5 2 2 1 3 7 5 6 6 7 13 4 2 6 6 9 14
24 21 19 15 14 15 16 15 14 14 13 12 11 11 11 11 13 13 4 8 7 3 6 3 9 15 14 13 8 3 5 10 4 5 5 6 4 6 5 1 3 1 2 2 6 2 6 9 8 8 11 9 9 11
20 22 20 16 16 16 15 13 15 13 14 13 12 13 13 14 16 17 7 8 5 3 10 10 16 16 14 19 15 5 4 3 2 3 4 4 3 4 3 2 4 3 7 3 6 6 12 11 12 13 14 15 15 14
18 19 20 18 16 15 12 12 15 13 14 13 14 14 14 14 16 20 12 12 8 3 4 8 3 8 7 15 17 20 17 3 2 5 6 4 4 2 3 4 3 4 8 5 1 13 13 17 14 12 14 16 18 17
21 23 22 17 16 15 15 18 16 13 13 14 15 16 16 16 16 13 13 15 17 9 5 5 7 6 9 11 15 15 14 12 8 4 3 4 3 4 3 4 4 6 5 4 2 7 11 9 11 11 15 16 14 15
19 21 20 20 19 16 15 16 14 13 14 15 15 16 18 19 18 9 8 8 18 7 3 3 4 2 1 5 10 11 10 6 4 4 5 4 3 3 4 0 5 8 11 13 4 14 19 15 14 13 16 15 16 16
21 19 18 19 19 18 16 15 15 14 15 16 17 18 18 18 12 6 7 2 21 12 5 1 5 1 1 4 3 4 7 4 5 4 4 4 6 4 3 1 5 9 12 12 7 13 11 6 8 11 14 14 16 16
19 18 18 18 17 16 15 15 14 15 15 17 16 17 12 18 14 4 0 22 14 7 4 3 4 3 3 3 4 4 6 5 5 4 2 4 3 3 1 4 6 7 9 12 15 18 16 14 12 12 11 11 13 14
18 16 16 17 15 17 14 14 14 14 14 13 26 19 6 4 3 4 21 16 2 3 7 4 3 3 1 2 3 4 4 5 2 5 4 4 3 3 3 5 7 9 5 3 10 12 13 14 11 10 12 11 13 13
18 17 19 16 14 15 14 14 13 13 12 30 4 4 3 5 30 23 2 2 2 2 2 4 4 3 6 3 7 4 1 3 4 7 4 5 2 6 7 9 8 8 10 6 4 7 7 9 10 10 12 11 12 13
19 19 19 17 17 16 15 13 10 13 26 3 4 3 17 14 3 2 4 3 2 2 5 6 12 6 5 5 5 6 5 5 4 5 9 5 3 4 8 9 10 10 11 12 12 10 10 10 10 11 12 12 12 12
20 20 19 19 19 18 15 9 25 9 7 10 15 9 3 2 2 3 5 5 5 5 5 5 6 8 3 5 7 7 5 9 4 9 5 3 2 8 8 9 9 9 9 10 10 11 12 12 11 13 12 13 13 13
21 21 21 20 19 19 15 16 24 13 29 9 6 5 6 2 3 7 8 5 5 4 6 7 7 6 6 8 6 6 3 3 5 2 2 1 7 7 8 8 8 7 8 10 11 11 12 13 12 13 15 12 13 13
22 21 21 19 17 18 20 20 27 19 3 4 5 7 6 5 6 6 5 5 3 3 4 4 5 4 3 2 1 1 0 2 2 3 3 5 9 8 7 5 8 7 8 11 12 12 14 15 15 13 14 12 14 14
21 18 17 19 20 24 29 36 29 3 2 3 3 6 7 2 1 1 3 1 1 2 2 5 5 2 2 2 1 1 0 2 1 1 4 6 8 8 8 9 11 11 11 12 10 13 13 12 13 12 10 10 11 12
19 15 12 20 34 40 38 19 4 2 4 3 4 3 2 4 2 1 1 2 6 2 3 2 3 2 1 1 1 2 1 2 1 3 5 7 8 9 10 11 12 12 13 12 12 12 12 12 12 12 10 10 9 10
26 4 37 42 40 35 13 6 4 5 4 3 3 4 3 4 4 2 3 3 6 1 2 2 2 1 2 2 1 2 2 2 4 6 4 7 11 12 12 13 13 13 12 11 10 10 10 9 9 9 9 7 7 7
18 41 45 41 24 12 5 7 5 4 4 3 3 3 4 3 2 3 3 5 3 2 2 2 4 2 2 2 2 4 3 4 5 8 9 10 10 10 10 12 10 10 10 9 8 8 7 5 5 5 6 7 7 6
36 35 36 26 10 8 5 4 3 5 3 3 5 3 3 3 4 3 2 4 4 4 6 3 3 2 2 3 3 7 10 7 9 6 7 9 10 10 10 9 8 7 7 6 5 4 3 4 3 1 3 4 3 4
33 27 23 19 10 5 5 4 3 5 4 3 3 4 4 3 1 5 9 7 4 3 4 2 2 2 3 3 5 10 10 12 14 13 10 8 8 11 10 9 7 7 6 6 5 5 4 4 6 5 3 0 3 4
19 8 15 9 5 8 5 3 4 3 5 4 4 2 3 2 3 4 5 5 5 3 2 1 2 1 0 3 7 12 12 12 10 6 11 11 8 8 8 7 7 6 5 6 6 4 4 4 3 3 4 5 4 3
5 12 6 7 5 4 5 5 6 5 4 4 3 3 3 2 2 2 2 5 3 1 2 4 5 8 11 10 10 9 12 11 11 12 12 12 8 8 7 6 7 6 5 4 3 4 3 2 2 2 3 2 2 2
9 7 6 5 5 5 3 2 3 2 4 4 2 3 2 2 1 1 3 2 1 0 2 7 8 10 14 11 13 10 8 12 12 11 10 9 7 6 6 4 4 7 6 3 3 4 3 1 2 1 1 1 1 2
7 5 3 3 4 3 1 2 3 4 4 3 3 3 2 3 2 3 2 1 1 2 7 11 12 13 11 10 9 7 7 10 13 10 8 11 10 6 6 6 5 4 3 5 4 3 2 1 0 0 0 1 2 2
5 4 2 3 2 5 4 4 3 3 3 3 4 3 4 3 2 2 3 5 5 8 10 9 9 9 13 9 7 7 5 10 13 12 3 6 10 8 6 5 4 3 2 3 2 2 2 1 1 1 1 2 4 4
4 2 1 3 3 3 6 5 5 5 5 4 3 3 2 3 3 4 3 9 6 9 12 14 13 12 9 7 12 10 7 7 10 8 4 4 5 6 6 5 3 1 2 2 2 1 2 2 2 2 3 3 4 4
4 2 2 3 1 5 5 4 3 3 4 5 6 6 4 4 5 2 2 2 4 5 8 10 12 13 14 11 9 8 7 7 6 8 7 5 4 2 3 3 5 2 3 2 2 1 1 1 1 1 3 3 4 4
3 2 6 2 5 5 5 3 2 3 3 1 5 5 5 3 4 1 1 1 7 12 12 10 8 11 13 12 12 14 13 13 15 13 12 11 9 7 7 7 6 6 4 3 3 3 2 2 1 1 3 5 5 3
3 2 4 5 4 5 4 2 2 1 2 2 4 4 3 2 3 2 1 5 7 15 16 15 11 13 15 12 9 8 12 12 11 7 4 3 2 2 3 4 4 4 3 3 2 1 2 1 2 3 3 4 4 4
2 2 5 4 3 2 1 1 1 0 2 3 4 4 3 3 5 4 4 7 10 13 11 13 14 13 15 14 13 8 3 1 1 3 3 2 3 6 6 4 4 3 3 2 1 1 2 2 1 1 3 3 4 5
1 3 5 4 3 1 2 1 1 2 3 4 4 5 5 3 3 7 6 4 9 12 16 14 10 10 13 14 12 10 5 1 2 3 4 8 10 8 6 5 3 2 3 3 2 1 1 2 3 4 5 6 7 7
3 3 6 4 4 3 1 1 2 3 2 3 2 2 2 3 3 3 3 4 10 12 9 12 14 10 7 5 5 3 4 12 10 9 10 9 8 6 5 4 3 2 2 2 2 1 2 3 4 5 6 7 8 9
3 3 4 5 5 5 4 4 3 3 3 2 2 2 2 3 4 2 1 4 4 9 13 10 10 11 9 9 12 13 12 10 9 8 8 8 8 6 5 4 3 3 3 2 1 2 3 3 4 5 6 7 9 9
Wind_Direction
202 202 204 208 210 218 223 217 211 219 201 204 212 219 214 196 179 162 190 186 170 199 258 225 230 229 227 204 265 317 337 346 309 347 321 343 31 19 320 49 114 164 160 187 200 217 254 356 356 28 323 21 33 44
209 205 201 209 216 219 223 228 214 193 201 210 219 221 215 211 194 177 175 190 173 209 256 256 246 248 239 247 272 261 272 296 297 318 347 311 349 5 1 102 6 114 13 255 229 287 79 50 78 21 24 77 65 83
214 207 202 211 217 220 226 236 206 204 209 215 221 228 229 230 218 191 158 152 158 257 267 246 259 257 222 225 210 220 248 232 219 260 301 303 318 335 332 346 322 48 31 295 344 125 94 81 68 52 50 63 63 71
212 203 192 223 218 215 227 211 216 206 212 225 230 234 238 241 238 207 187 172 174 148 251 271 270 257 245 212 208 214 235 259 353 307 311 292 300 309 298 316 312 1 325 336 121 112 85 52 60 63 61 65 69 70
202 199 204 207 217 215 208 219 210 212 226 232 236 243 244 241 239 232 215 187 187 192 214 267 298 256 239 209 204 202 220 237 265 286 266 285 261 293 294 258 40 355 351 321 3 335 90 67 61 67 74 69 70 80
211 207 213 220 218 213 212 212 213 224 233 238 246 253 246 243 233 225 220 209 201 189 194 251 298 257 350 196 197 193 204 201 204 227 244 268 281 306 303 343 58 35 27 22 80 76 94 90 69 67 78 76 73 78
209 214 211 208 207 203 205 215 219 229 237 246 255 251 251 256 236 176 195 204 172 138 132 210 261 258 241 126 128 138 171 192 197 234 235 257 285 222 244 198 42 47 48 34 62 117 75 48 100 87 87 84 84 81
208 207 222 202 194 201 206 216 224 232 242 252 260 268 267 111 102 129 14 148 122 95 155 202 258 300 188 159 150 170 168 201 220 239 285 247 266 242 241 79 56 31 73 55 57 72 101 109 103 101 101 99 91 88
208 211 194 199 197 197 203 224 232 243 251 273 128 111 79 58 97 100 131 120 74 164 162 186 211 186 78 145 136 174 169 191 208 221 221 198 247 238 59 88 57 35 30 52 94 95 97 93 96 100 100 97 97 97
209 192 201 197 199 208 219 231 249 250 279 140 96 85 90 84 118 117 131 89 340 346 147 228 195 222 163 151 183 175 151 214 206 228 160 219 200 102 82 71 60 44 30 18 147 101 101 97 98 94 94 95 99 103
191 196 204 207 213 217 223 239 251 263 145 149 114 83 126 130 79 75 116 162 202 250 209 218 200 176 198 185 187 205 195 194 223 192 189 193 229 134 96 75 57 53 57 62 74 70 69 102 110 110 100 97 101 103
202 208 209 212 213 217 218 213 167 146 166 143 107 97 118 148 126 141 168 158 203 230 196 189 204 194 197 189 210 179 211 187 246 151 179 217 114 118 98 80 65 66 74 75 74 81 80 85 97 105 104 101 99 102
211 211 211 214 213 213 197 198 178 134 126 115 88 127 165 160 163 181 187 194 205 202 193 193 168 167 191 203 221 197 195 184 120 155 197 113 129 113 112 107 83 81 91 92 87 88 94 94 95 107 107 103 105 103
208 213 214 213 213 219 202 208 159 159 119 125 137 142 189 180 220 197 203 188 200 209 186 179 130 184 176 168 252 182 199 170 165 219 200 153 139 120 100 93 117 104 100 102 103 102 97 95 93 92 99 107 109 107
210 215 216 220 219 224 156 147 160 67 77 102 124 181 191 178 80 199 223 220 6 300 142 118 94 130 85 91 14 143 289 231 238 118 138 131 127 129 120 114 116 117 113 105 104 103 101 99 97 96 97 103 109 114
206 216 220 204 140 134 134 127 92 88 64 75 71 119 138 143 169 138 209 123 13 353 107 70 114 98 92 105 136 188 176 238 188 164 151 139 130 122 119 116 115 116 115 115 112 114 114 115 115 116 112 111 115 119
192 192 140 131 128 135 128 93 72 57 76 66 83 62 98 76 131 98 22 353 332 64 108 92 118 135 113 105 168 192 196 157 155 139 134 141 141 137 133 124 123 124 122 117 113 109 109 115 122 120 112 126 127 130
129 131 133 135 130 104 65 48 79 80 77 64 111 81 74 47 83 45 357 351 16 87 91 112 123 126 172 183 223 173 134 118 127 134 136 138 135 137 133 126 120 122 122 117 116 116 117 103 95 108 125 130 122 123
122 129 133 132 94 87 85 55 46 95 86 102 105 90 86 90 57 19 343 8 59 74 113 74 96 169 189 200 167 157 154 149 140 125 123 136 137 134 129 125 123 119 118 123 118 105 72 50 48 113 162 166 168 164
113 98 98 85 75 82 90 75 77 96 131 140 104 86 85 75 353 16 35 33 44 46 62 70 141 173 185 196 182 157 149 134 128 126 128 135 139 140 146 147 150 146 131 118 106 115 113 85 54 49 56 93 230 230
92 63 59 68 56 62 87 102 72 96 117 94 131 88 81 41 43 37 34 4 62 51 96 150 143 101 26 132 140 134 134 140 143 142 149 147 149 141 140 139 135 134 138 144 142 127 100 88 68 59 73 75 61 38
77 59 69 43 76 65 80 27 111 120 79 125 110 94 94 86 61 44 27 56 73 105 155 147 138 126 117 122 130 131 130 119 116 114 114 127 137 141 145 144 142 149 148 150 144 139 121 89 76 81 85 60 49 43
73 54 54 45 78 58 92 351 90 81 124 145 106 95 81 95 91 105 81 75 103 291 132 111 108 110 113 107 105 100 111 130 125 125 123 117 110 113 125 130 146 152 149 139 130 130 128 91 74 96 55 34 342 324
47 61 71 75 80 114 92 85 96 102 111 144 128 126 146 137 99 65 132 158 155 114 125 127 125 114 102 104 109 116 115 120 117 111 121 129 121 106 105 106 102 97 104 134 132 133 133 136 338 179 30 348 345 323
88 18 70 105 101 126 127 136 122 119 136 152 138 142 163 146 148 182 191 180 161 148 138 132 127 134 135 125 119 120 112 144 140 135 109 135 126 119 109 93 84 72 131 149 172 210 228 244 249 249 298 316 314 317
102 19 95 143 141 143 161 139 164 150 135 141 159 131 123 147 182 217 204 172 158 164 163 160 150 139 136 143 142 141 139 136 127 124 131 158 162 160 163 164 167 165 51 100 137 257 265 255 251 276 302 318 311 310
131 153 81 33 75 108 101 81 101 123 153 167 169 163 155 205 210 207 149 179 146 163 165 157 155 150 146 135 114 103 96 89 99 112 106 90 78 86 163 194 216 169 137 120 115 120 152 170 222 284 308 309 295 285
101 78 161 102 76 40 124 102 120 144 147 66 140 173 187 178 165 207 262 355 140 118 105 83 80 112 123 125 124 116 99 103 100 98 92 74 63 70 83 88 88 101 101 105 111 110 101 124 120 299 307 309 308 305
75 68 100 81 71 60 53 94 132 123 9 114 132 141 145 72 344 306 38 138 133 123 121 117 100 102 100 94 84 102 130 133 130 140 136 142 178 182 92 96 93 79 75 97 134 115 183 179 271 284 299 299 312 310
86 62 95 79 79 86 350 195 124 281 39 90 108 108 85 45 8 16 112 139 153 147 138 137 143 142 144 140 135 124 87 50 84 140 166 210 227 156 145 124 109 90 66 67 63 3 63 48 28 356 330 323 331 326
84 97 85 78 96 147 149 3 78 101 60 60 49 98 117 126 73 40 59 93 127 127 130 135 131 140 143 149 152 153 163 47 114 137 128 119 126 131 129 126 118 96 71 63 53 37 333 319 322 317 318 322 327 329
46 97 130 117 137 183 17 111 85 78 44 65 71 91 94 93 84 28 26 110 134 141 146 148 146 156 159 137 130 115 118 129 121 118 123 123 122 122 121 116 113 94 74 60 47 17 337 324 321 322 323 329 331 330
99 95 92 110 134 175 191 122 75 96 53 80 77 83 93 115 138 150 61 31 165 159 147 133 120 120 126 126 123 118 111 111 113 112 113 113 117 121 113 104 99 98 102 91 35 352 341 333 330 330 330 328 326 326